CW8826 Weather Reports


Display with metric or nautical units.
time (UTC)temp
F
wind
direction
speed
MPH
gust
MPH
rain 1hr
in
rain 24hr
in
rain mn
in
humidity
%
barometer
mb
20260510234516 78 45 3.0 6.0 0.00 0.00 0.00 12 1020.9
20260510233516 78 248 3.0 6.0 0.00 0.00 0.00 12 1020.3
20260510232516 78 270 4.0 8.0 0.00 0.00 0.00 12 1020.4
20260510231516 78 270 1.0 5.0 0.00 0.00 0.00 11 1020.4
20260510230516 78 270 1.0 6.0 0.00 0.00 0.00 13 1021.3
20260510225542 77 270 3.0 5.0 0.00 0.00 0.00 13 1021.1
20260510224516 77 0 3.0 8.0 0.00 0.00 0.00 12 1021.1
20260510223516 76 45 6.0 10.0 0.00 0.00 0.00 12 1021.2
20260510222516 77 315 3.0 10.0 0.00 0.00 0.00 12 1021.6
20260510221516 77 248 4.0 8.0 0.00 0.00 0.00 13 1021.7
20260510220516 76 225 3.0 10.0 0.00 0.00 0.00 14 1021.6
20260510215516 76 248 6.0 11.0 0.00 0.00 0.00 13 1021.7
20260510214516 76 270 2.0 5.0 0.00 0.00 0.00 15 1021.9
20260510213516 77 270 3.0 9.0 0.00 0.00 0.00 14 1022.1
20260510212517 75 248 2.0 10.0 0.00 0.00 0.00 15 1022.0
20260510211516 76 248 4.0 10.0 0.00 0.00 0.00 15 1022.4
20260510210516 75 248 4.0 9.0 0.00 0.00 0.00 15 1022.6
20260510205516 75 270 4.0 9.0 0.00 0.00 0.00 17 1022.8
20260510204516 74 338 1.0 3.0 0.00 0.00 0.00 16 1022.8
20260510203557 75 248 1.0 4.0 0.00 0.00 0.00 15 1022.9
20260510202516 74 225 2.0 6.0 0.00 0.00 0.00 16 1022.6
20260510201638 74 135 2.0 10.0 0.00 0.00 0.00 18 1022.7
20260510200516 73 315 4.0 8.0 0.00 0.00 0.00 17 1022.7
20260510195516 74 270 2.0 6.0 0.00 0.00 0.00 17 1023.1
20260510194516 73 248 3.0 10.0 0.00 0.00 0.00 18 1022.9
20260510193516 73 270 2.0 6.0 0.00 0.00 0.00 18 1023.4
20260510192517 73 248 1.0 4.0 0.00 0.00 0.00 18 1023.5
20260510191516 73 248 3.0 8.0 0.00 0.00 0.00 18 1023.5
20260510190516 72 293 2.0 6.0 0.00 0.00 0.00 19 1023.3
20260510185516 72 315 2.0 6.0 0.00 0.00 0.00 19 1023.4
20260510184536 72 248 4.0 10.0 0.00 0.00 0.00 19 1023.5
20260510183537 71 270 3.0 6.0 0.00 0.00 0.00 19 1023.7
20260510182516 71 225 3.0 9.0 0.00 0.00 0.00 18 1023.7
20260510181517 70 248 2.0 7.0 0.00 0.00 0.00 18 1023.4
20260510180516 70 248 4.0 9.0 0.00 0.00 0.00 20 1023.5
20260510175516 70 248 3.0 5.0 0.00 0.00 0.00 20 1023.2
20260510174517 70 248 3.0 7.0 0.00 0.00 0.00 21 1023.7
20260510173516 70 270 1.0 7.0 0.00 0.00 0.00 22 1023.5
20260510172516 68 225 3.0 7.0 0.00 0.00 0.00 21 1023.2
20260510171536 68 225 3.0 7.0 0.00 0.00 0.00 23 1023.3
20260510170516 67 248 1.0 4.0 0.00 0.00 0.00 23 1022.9
20260510165516 67 225 2.0 5.0 0.00 0.00 0.00 23 1022.9
20260510164516 66 225 3.0 8.0 0.00 0.00 0.00 23 1022.7
20260510163520 65 270 4.0 8.0 0.00 0.00 0.00 25 1022.8
20260510162516 65 270 1.0 4.0 0.00 0.00 0.00 27 1022.8
20260510161516 65 225 1.0 5.0 0.00 0.00 0.00 27 1023.0
20260510160516 65 225 1.0 4.0 0.00 0.00 0.00 26 1022.7
20260510155516 64 270 1.0 4.0 0.00 0.00 0.00 27 1022.6
20260510154536 64 248 2.0 5.0 0.00 0.00 0.00 25 1022.7
20260510153516 64 0.0 2.0 0.00 0.00 0.00 25 1023.2
20260510152516 63 0.0 2.0 0.00 0.00 0.00 28 1023.2
20260510151516 62 0.0 0.0 0.00 0.00 0.00 29 1022.9
20260510150537 60 0.0 1.0 0.00 0.00 0.00 32 1023.3
20260510145516 59 113 1.0 2.0 0.00 0.00 0.00 31 1022.8
20260510144516 57 113 1.0 2.0 0.00 0.00 0.00 32 1022.3
20260510143516 56 113 1.0 2.0 0.00 0.00 0.00 35 1022.9
20260510142516 55 0.0 0.0 0.00 0.00 0.00 36 1022.8
20260510141516 56 113 1.0 2.0 0.00 0.00 0.00 38 1022.9
20260510140537 56 0.0 0.0 0.00 0.00 0.00 32 1023.5
20260510135516 58 113 4.0 9.0 0.00 0.00 0.00 30 1023.7
20260510134517 57 113 3.0 8.0 0.00 0.00 0.00 29 1023.5
20260510133516 57 113 4.0 9.0 0.00 0.00 0.00 30 1023.1
20260510132536 57 113 2.0 6.0 0.00 0.00 0.00 30 1023.0
20260510131516 57 90 3.0 10.0 0.00 0.00 0.00 29 1022.9
20260510130516 57 113 6.0 11.0 0.00 0.00 0.00 29 1022.8
20260510125516 57 113 7.0 11.0 0.00 0.00 0.00 29 1022.4
20260510124516 57 113 6.0 13.0 0.00 0.00 0.00 28 1022.7
20260510123516 58 68 6.0 11.0 0.00 0.00 0.00 26 1022.6
20260510122516 58 68 10.0 16.0 0.00 0.00 0.00 26 1022.5
20260510121517 58 68 4.0 14.0 0.00 0.00 0.00 27 1022.4
20260510120516 59 68 8.0 16.0 0.00 0.00 0.00 26 1022.3
20260510115516 58 68 7.0 13.0 0.00 0.00 0.00 27 1022.3
20260510114516 58 113 4.0 10.0 0.00 0.00 0.00 28 1022.0
20260510113516 58 68 8.0 15.0 0.00 0.00 0.00 27 1022.1
20260510112516 57 68 7.0 15.0 0.00 0.00 0.00 28 1022.1
20260510111516 55 113 6.0 15.0 0.00 0.00 0.00 31 1021.7
20260510110516 55 113 7.0 13.0 0.00 0.00 0.00 31 1021.5
20260510105517 56 113 4.0 10.0 0.00 0.00 0.00 30 1021.8
20260510104516 57 135 5.0 10.0 0.00 0.00 0.00 29 1021.7
20260510103516 58 90 5.0 12.0 0.00 0.00 0.00 27 1022.0
20260510102517 58 90 10.0 16.0 0.00 0.00 0.00 27 1021.9
20260510101516 59 90 8.0 16.0 0.00 0.00 0.00 27 1022.0
20260510100516 58 68 8.0 17.0 0.00 0.00 0.00 27 1021.8
20260510095517 59 90 6.0 15.0 0.00 0.00 0.00 27 1021.8
20260510094516 59 68 10.0 15.0 0.00 0.00 0.00 26 1021.7
20260510093536 59 90 9.0 16.0 0.00 0.00 0.00 26 1021.8
20260510092516 58 90 9.0 19.0 0.00 0.00 0.00 27 1021.6
20260510091516 58 113 6.0 12.0 0.00 0.00 0.00 28 1021.7
20260510090516 58 113 11.0 18.0 0.00 0.00 0.00 28 1021.3
20260510085536 58 113 11.0 18.0 0.00 0.00 0.00 28 1021.2
20260510084516 60 113 8.0 13.0 0.00 0.00 0.00 26 1021.6
20260510083516 59 90 6.0 15.0 0.00 0.00 0.00 26 1021.1
20260510082536 60 113 4.0 8.0 0.00 0.00 0.00 26 1021.0
20260510081516 60 90 4.0 10.0 0.00 0.00 0.00 25 1020.9
20260510080516 59 113 6.0 14.0 0.00 0.00 0.00 26 1020.9
20260510075516 60 113 3.0 10.0 0.00 0.00 0.00 25 1020.9
20260510074556 60 90 4.0 10.0 0.00 0.00 0.00 24 1021.2
20260510073516 60 113 4.0 11.0 0.00 0.00 0.00 24 1020.8
20260510072516 61 135 3.0 8.0 0.00 0.00 0.00 23 1021.2
20260510071516 62 90 5.0 10.0 0.00 0.00 0.00 22 1021.1
20260510070517 62 68 6.0 12.0 0.00 0.00 0.00 21 1021.0
20260510065516 62 68 5.0 12.0 0.00 0.00 0.00 21 1020.8
20260510064636 61 113 6.0 16.0 0.00 0.00 0.00 22 1020.8
20260510063516 61 113 3.0 12.0 0.00 0.00 0.00 22 1020.3
20260510062516 60 135 2.0 7.0 0.00 0.00 0.00 22 1020.2
20260510061516 60 113 4.0 8.0 0.00 0.00 0.00 23 1020.1
20260510060517 60 113 5.0 14.0 0.00 0.00 0.00 22 1019.6
20260510055517 60 113 5.0 10.0 0.00 0.00 0.00 22 1019.5
20260510054517 61 113 6.0 11.0 0.00 0.00 0.00 21 1019.8
20260510053517 60 90 10.0 19.0 0.00 0.00 0.00 23 1019.4
20260510052517 61 113 4.0 8.0 0.00 0.00 0.00 21 1019.3
20260510051516 60 113 7.0 15.0 0.00 0.00 0.00 22 1019.3
20260510050516 58 113 12.0 20.0 0.00 0.00 0.00 23 1018.9
20260510045517 58 113 12.0 20.0 0.00 0.00 0.00 25 1018.6
20260510044516 58 113 14.0 20.0 0.00 0.00 0.00 24 1018.8
20260510043516 58 113 10.0 18.0 0.00 0.00 0.00 23 1018.3
20260510042517 59 113 11.0 18.0 0.00 0.00 0.00 23 1018.6
20260510041516 59 113 13.0 18.0 0.00 0.00 0.00 22 1018.6
20260510040517 59 113 15.0 19.0 0.00 0.00 0.00 23 1018.3
20260510035517 58 113 13.0 19.0 0.00 0.00 0.00 24 1018.1
20260510034517 59 113 13.0 21.0 0.00 0.00 0.00 25 1017.9
20260510033516 60 113 10.0 16.0 0.00 0.00 0.00 22 1017.7
20260510032617 61 113 9.0 17.0 0.00 0.00 0.00 21 1017.5
20260510031516 61 113 11.0 16.0 0.00 0.00 0.00 22 1017.6
20260510030516 62 113 8.0 14.0 0.00 0.00 0.00 21 1017.1
20260510025517 64 113 9.0 14.0 0.00 0.00 0.00 18 1016.9
20260510024517 63 113 5.0 9.0 0.00 0.00 0.00 19 1016.8
20260510023517 65 113 4.0 8.0 0.00 0.00 0.00 17 1017.3
20260510022516 67 0.0 4.0 0.00 0.00 0.00 17 1017.5
20260510021517 68 113 2.0 3.0 0.00 0.00 0.00 14 1017.4
20260510020537 70 0.0 1.0 0.00 0.00 0.00 14 1017.7
20260510015516 71 0.0 1.0 0.00 0.00 0.00 12 1018.1
20260510014536 72 338 1.0 3.0 0.00 0.00 0.00 12 1018.0
20260510013538 72 0.0 1.0 0.00 0.00 0.00 12 1018.0
20260510012516 72 0.0 1.0 0.00 0.00 0.00 12 1018.0
20260510011516 71 270 2.0 6.0 0.00 0.00 0.00 13 1018.2
20260510010516 71 225 2.0 6.0 0.00 0.00 0.00 12 1017.5
20260510005517 70 90 1.0 4.0 0.00 0.00 0.00 13 1017.3
20260510004517 71 315 3.0 9.0 0.00 0.00 0.00 13 1017.8
20260510003517 71 315 1.0 4.0 0.00 0.00 0.00 13 1017.7
20260510002517 71 270 1.0 3.0 0.00 0.00 0.00 14 1017.7
20260510001516 71 315 2.0 5.0 0.00 0.00 0.00 14 1017.8
20260510000516 71 315 2.0 5.0 0.00 0.00 0.00 13 1018.2
20260509235516 72 270 2.0 5.0 0.00 0.00 0.00 14 1018.2